sat.trackr.live / text

‹ back to catalog

STARLINK-36792

NORAD 67804 · 2026-032H

PAYLOAD ACTIVE UNKNOWN

§ Identity

Operator
Country
US
Launch date
2026-02-15
Launch site
AFWTR
Launch vehicle
Mass (kg)
RCS (m²)

Purposes: comms

External: N2YO · Heavens-Above · Gunter

§ Orbital elements

Epoch: 2026-05-25T01:51:54.722880Z

Period
93.91 min
Inclination
97.2863°
Eccentricity
0.0001398
Mean motion
15.33448285 rev/d
Perigee alt
464.6 km
Apogee alt
466.5 km
Semi-major
6,843.7 km
B*
2.6687e-4
RAAN
333.1149°
Arg perigee
98.5268°
Mean anomaly
261.6133°
Rev number
1,666

§ Raw data

STARLINK-367921 67804U 26032H   26145.07771670  .00008551  00000+0  26687-3 0  99912 67804  97.2863 333.1149 0001398  98.5268 261.6133 15.33448285 16669

JSON: /api/v1/satellites/67804 · /tle

For live sub-satellite position, see the globe view (requires WebGL).

§ Visibility from observer

Set your observer location to see the next 7 days of passes ≥ 10°. The values pass through the URL so the page stays shareable.

No JS? Fill the form by hand. The geolocation button needs JavaScript.